This is the latest recevied weather packets stored in our database for station/object W4GAP. If no packets are shown the sender has not sent any weather packets the latest 10 day(s).
| Time | Temp. | Humidity | Pressure | Rain* | Wind** | Luminosity | Snow |
|---|---|---|---|---|---|---|---|
| 1777751386 | 20° C | 47% | 1008.8 hPa | 0 mm | - | 43 W/m² | - |
| 1777751083 | 20° C | 46% | 1008.7 hPa | 0 mm | - | 35 W/m² | - |
| 1777750779 | 20° C | 47% | 1008.8 hPa | 0 mm | - | 39 W/m² | - |
| 1777750477 | 20° C | 48% | 1008.8 hPa | 0 mm | - | 44 W/m² | - |
| 1777750172 | 20° C | 49% | 1008.8 hPa | 0 mm | - | 194 W/m² | - |
| 1777749869 | 20° C | 48% | 1008.8 hPa | 0 mm | - | 44 W/m² | - |
| 1777749566 | 20° C | 46% | 1008.8 hPa | 0 mm | - | 208 W/m² | - |
| 1777749264 | 20° C | 48% | 1009 hPa | 0 mm | - | 124 W/m² | - |
| 1777748961 | 20.56° C | 48% | 1008.8 hPa | 0 mm | - | 61 W/m² | - |
| 1777748658 | 20.56° C | 48% | 1008.8 hPa | 0 mm | - | 406 W/m² | - |
| 1777748354 | 20.56° C | 50% | 1008.9 hPa | 0 mm | - | 134 W/m² | - |
| 1777748050 | 20° C | 50% | 1008.8 hPa | 0 mm | - | 392 W/m² | - |
| 1777747747 | 20.56° C | 49% | 1008.9 hPa | 0 mm | - | 540 W/m² | - |
| 1777747443 | 20° C | 48% | 1008.8 hPa | 0 mm | - | 762 W/m² | - |
| 1777747139 | 20° C | 53% | 1008.9 hPa | 0 mm | - | 727 W/m² | - |
| 1777746835 | 19.44° C | 54% | 1009 hPa | 0 mm | - | 67 W/m² | - |
| 1777746531 | 19.44° C | 52% | 1009 hPa | 0 mm | - | 113 W/m² | - |
| 1777746226 | 19.44° C | 52% | 1009.1 hPa | 0 mm | - | 121 W/m² | - |
| 1777745923 | 21.11° C | 49% | 1008.9 hPa | 0 mm | - | 107 W/m² | - |
| 1777745622 | 20.56° C | 53% | 1008.9 hPa | 0 mm | - | 579 W/m² | - |
| 1777745319 | 20° C | 50% | 1008.8 hPa | 0 mm | - | 540 W/m² | - |
| 1777745016 | 20.56° C | 51% | 1009.3 hPa | 0 mm | - | 55 W/m² | - |
| 1777744712 | 20° C | 51% | 1009.2 hPa | 0 mm | - | 478 W/m² | - |
| 1777744406 | 20° C | 53% | 1009.1 hPa | 0 mm | - | 69 W/m² | - |
| 1777744104 | 20° C | 50% | 1009.1 hPa | 0 mm | - | 193 W/m² | - |
* Rain latest hour (hover to see other rain measurements)
** Current wind speed in m/s (hover to see current wind gust speed)